Location: Kitt Peak
(31.9639°N, 111.5992°W)
Time: 05:19:00
(UTC-07:00)

SEEDS - Visible Passes

Search period start: 15 February 2026 00:00
Search period end: 25 February 2026 00:00
Orbit: 478 x 485 km, 97.7° (Epoch: 14 February)

Date Brightness Start Highest point End Pass type
(mag) Time Alt. Az. Time Alt. Az. Time Alt. Az.
15 Feb ? 04:49:21 10° NE 04:51:47 17° E 04:54:13 10° SE visible
15 Feb ? 06:22:23 10° NNW 06:25:00 19° WNW 06:27:36 10° WSW visible
16 Feb ? 05:56:27 10° N 05:59:51 43° WNW 06:03:15 10° SSW visible
17 Feb ? 05:31:01 10° NNE 05:34:35 73° ESE 05:38:08 10° S visible
18 Feb ? 05:06:03 10° NE 05:09:13 29° E 05:12:22 10° SSE visible
18 Feb ? 06:40:51 10° NW 06:42:13 12° WNW 06:43:34 10° W visible
19 Feb ? 04:41:59 10° ENE 04:43:43 13° E 04:45:28 10° SE visible
19 Feb ? 06:14:03 10° NNW 06:17:02 25° WNW 06:20:00 10° SW visible
20 Feb ? 05:48:12 10° N 05:51:44 61° WNW 05:55:15 10° SSW visible
21 Feb ? 05:22:49 10° NNE 05:26:19 52° E 05:29:48 10° S visible
22 Feb ? 04:57:58 10° NE 05:00:48 22° E 05:03:37 10° SSE visible
22 Feb ? 06:31:43 10° NNW 06:33:54 16° WNW 06:36:06 10° WSW visible
23 Feb ? 06:05:19 10° N 06:08:34 34° WNW 06:11:49 10° SW visible
24 Feb ? 05:39:33 10° N 05:43:08 86° WNW 05:46:41 10° SSW visible
